Wind_Speed
14 14 15 15 15 14 14 15 15 15 15 15 15 15 14 14 14 14 14 14 14 13 13 12 12 12 12 12 12 11 10 10 11 10 10 10 10 10
15 15 15 15 15 15 15 15 15 16 16 15 16 15 15 15 15 15 15 15 14 14 13 13 13 12 12 12 12 11 11 11 11 11 11 11 12 12
16 16 16 16 16 16 16 16 16 15 15 16 16 16 17 17 17 16 15 15 15 14 14 14 14 13 12 12 12 12 12 12 12 13 13 13 13 13
18 18 18 18 17 17 17 17 17 16 16 16 17 17 18 18 17 17 16 16 16 15 16 15 14 14 14 13 13 13 13 13 14 14 15 15 14 15
20 20 20 19 19 18 18 17 17 17 17 17 17 17 18 18 18 17 17 17 16 16 17 16 16 15 15 15 15 15 15 15 16 16 16 16 16 16
22 22 21 20 20 20 19 19 18 18 17 18 18 18 19 19 19 18 18 18 17 17 18 17 17 17 17 17 16 16 17 17 17 17 18 18 17 17
24 23 23 22 22 21 21 20 20 19 19 18 19 19 19 19 19 19 20 20 20 19 19 19 19 19 19 19 18 19 19 19 19 18 19 18 18 18
25 25 25 24 23 22 22 22 21 21 21 20 20 20 20 20 20 21 21 21 21 21 21 20 20 20 20 20 19 19 20 20 20 19 19 18 18 18
26 26 26 25 25 24 24 23 23 23 23 23 22 22 22 22 22 22 22 22 22 22 22 22 22 21 21 21 21 21 21 21 20 19 19 19 18 18
26 26 26 26 26 25 25 25 24 24 23 23 23 24 24 23 23 23 23 23 23 23 23 23 23 22 22 22 22 21 21 21 20 20 19 19 18 18
28 27 27 26 26 26 26 26 25 25 25 24 24 24 24 24 24 24 24 24 23 24 23 23 23 24 23 22 22 22 21 21 20 20 20 19 19 19
28 28 28 27 27 27 26 26 26 26 26 25 25 24 24 25 25 24 25 24 24 23 24 23 24 24 24 23 23 22 21 20 20 21 21 21 20 21
27 28 28 28 27 27 27 27 27 26 25 25 25 25 25 24 24 24 24 24 24 24 25 24 24 24 24 23 23 23 22 22 21 21 22 22 22 22
26 27 27 27 27 28 28 28 28 27 26 25 24 24 24 24 23 23 24 24 25 25 26 25 25 25 25 24 24 24 24 23 23 23 23 23 23 23
26 26 26 26 27 26 27 27 27 27 26 25 24 24 25 24 24 24 25 25 25 25 26 26 26 25 25 25 25 25 25 25 25 24 24 24 24 24
26 25 25 25 25 25 25 26 26 26 25 25 25 25 25 25 25 25 25 25 25 26 26 26 26 26 26 25 26 26 27 27 26 26 26 25 25 25
26 26 26 26 26 26 26 26 26 26 26 26 27 27 27 27 27 27 27 27 27 27 27 27 26 26 26 26 25 25 27 28 28 28 27 26 26 26
26 25 26 26 26 27 27 28 28 28 29 29 29 29 29 29 29 29 29 28 28 28 28 28 28 27 26 26 26 27 27 27 28 28 29 28 27 27
26 26 26 26 27 27 27 27 27 28 29 29 29 29 29 29 29 29 29 28 28 28 28 29 29 29 29 28 27 27 28 27 28 29 29 29 28 28
27 27 27 27 27 27 28 27 27 28 29 29 29 29 30 31 31 31 30 29 29 29 29 29 29 30 30 29 28 28 29 28 29 29 29 28 29 30
28 28 28 29 29 29 29 29 29 29 30 30 30 31 31 32 31 31 31 31 30 30 30 30 30 30 30 30 30 29 29 29 29 29 29 29 29 30
27 27 28 29 29 30 31 31 30 30 30 31 31 31 32 32 32 32 32 32 31 31 31 30 31 31 31 31 30 30 30 31 31 31 30 30 31 31
27 27 28 29 30 30 30 30 31 31 31 31 31 31 31 32 32 32 32 32 33 33 32 32 31 32 32 32 32 32 32 32 32 32 32 32 32 32
Wind_Direction
282 282 282 282 282 280 279 277 275 274 272 273 274 276 273 271 272 271 270 270 270 266 265 263 266 270 268 269 274 275 278 279 280 280 281 279 279 280
281 282 280 279 278 278 279 280 278 276 270 269 273 272 272 271 269 270 271 271 271 269 267 267 268 269 268 272 271 269 274 277 277 279 281 277 276 276
280 280 278 276 276 276 277 277 279 277 271 268 269 270 269 268 265 266 269 268 269 268 265 267 266 267 270 273 273 273 274 277 276 276 278 277 276 275
278 278 277 277 277 275 274 274 275 274 271 270 269 268 268 267 265 263 266 265 265 265 264 264 266 266 266 269 272 274 276 276 276 273 273 275 275 274
275 275 275 274 274 275 274 274 274 274 271 269 269 270 270 269 266 263 262 264 264 262 262 262 264 267 266 268 272 274 274 275 276 275 272 271 271 271
271 272 272 272 273 273 272 273 274 274 271 270 270 270 270 270 267 264 262 261 262 261 260 260 262 265 267 268 272 275 276 276 277 276 275 272 270 271
268 268 269 271 273 272 270 271 271 272 271 270 270 269 270 272 268 264 264 262 260 259 259 260 262 265 267 267 269 272 276 276 276 277 277 274 270 269
268 266 266 267 269 270 269 269 270 269 269 269 272 272 270 269 265 263 264 262 260 259 258 262 264 264 266 268 269 272 275 274 274 273 273 275 271 268
267 266 265 266 266 267 269 267 268 269 266 265 268 270 269 268 265 263 261 261 260 259 259 262 264 264 264 266 269 272 275 275 272 271 271 271 271 268
269 267 266 265 264 265 266 266 268 267 268 267 266 267 268 267 265 262 259 260 259 259 261 263 264 264 264 264 266 270 273 273 270 270 269 268 267 267
269 266 266 265 264 265 265 264 265 267 268 268 266 266 266 265 265 261 260 261 260 260 261 263 263 264 264 265 266 268 270 271 270 270 268 266 264 264
269 266 265 264 264 265 264 263 264 264 265 265 265 267 267 265 264 262 261 259 259 260 262 263 263 263 263 265 266 267 269 270 271 269 267 264 263 264
270 267 265 263 262 263 263 263 264 264 264 264 265 265 266 264 262 260 259 258 258 260 261 262 262 263 263 263 263 264 265 267 270 270 268 266 264 263
272 270 267 263 262 262 263 262 263 264 264 263 263 264 265 265 261 259 259 259 258 259 260 261 261 261 262 261 261 263 264 264 266 267 268 267 264 264
271 270 267 264 262 261 261 262 264 263 263 262 260 261 263 263 261 260 261 260 259 259 260 260 260 260 260 261 260 261 262 262 263 265 267 267 266 266
268 266 265 263 262 261 260 262 263 262 261 261 260 261 262 261 262 262 260 260 260 261 263 263 262 260 259 260 261 261 262 263 264 264 265 266 266 266
268 267 263 262 261 261 262 263 263 263 262 261 261 262 261 260 261 262 261 261 261 262 263 264 263 261 259 259 260 262 264 265 265 265 264 265 264 264
267 267 265 263 262 262 263 264 265 264 263 262 262 261 261 260 261 261 261 261 261 261 262 262 261 261 260 260 262 262 264 265 265 264 263 264 264 264
267 266 266 266 265 265 265 266 266 265 265 265 264 262 261 261 261 261 261 261 261 261 262 262 261 260 260 261 262 263 264 265 266 267 264 263 265 266
266 265 265 265 266 266 266 267 266 267 267 266 264 263 263 262 261 261 260 261 261 261 261 262 261 261 261 260 260 262 263 263 265 267 265 263 264 265
268 267 266 266 267 267 268 268 268 268 268 268 266 264 264 264 262 261 261 261 260 261 261 261 261 261 261 260 260 261 262 262 264 265 264 264 266 266
271 269 267 267 268 268 269 268 267 267 267 267 267 265 263 263 262 262 261 261 260 260 260 261 261 261 261 261 262 263 263 264 265 265 264 265 266 266
273 271 269 270 271 270 269 269 268 267 267 267 266 265 264 263 262 262 263 262 261 260 260 261 261 263 263 263 263 264 264 264 265 265 265 266 267 267
Height
5841 5840 5840 5839 5838 5838 5837 5837 5837 5836 5836 5835 5835 5834 5834 5834 5834 5834 5834 5833 5833 5833 5833 5833 5832 5832 5832 5831 5831 5830 5829 5828 5828 5827 5826 5826 5825 5824
5837 5836 5835 5834 5834 5833 5833 5832 5832 5832 5831 5831 5831 5830 5830 5830 5830 5830 5830 5829 5829 5829 5829 5829 5829 5828 5828 5828 5827 5827 5826 5825 5825 5824 5823 5823 5822 5821
5832 5831 5831 5830 5829 5828 5828 5828 5827 5827 5827 5827 5826 5826 5826 5826 5826 5826 5826 5825 5825 5825 5825 5825 5825 5825 5824 5824 5824 5823 5823 5822 5821 5821 5820 5819 5818 5817
5827 5826 5825 5825 5824 5823 5823 5823 5822 5822 5822 5822 5821 5821 5821 5821 5821 5821 5821 5821 5821 5821 5821 5821 5821 5821 5820 5821 5820 5820 5819 5818 5818 5817 5816 5816 5814 5813
5821 5821 5820 5819 5819 5818 5818 5817 5817 5817 5817 5817 5816 5816 5816 5816 5816 5816 5817 5817 5817 5817 5817 5817 5817 5816 5816 5816 5816 5816 5815 5814 5814 5813 5812 5811 5810 5809
5814 5814 5814 5813 5813 5812 5812 5812 5811 5811 5811 5811 5811 5811 5811 5811 5811 5811 5811 5812 5812 5812 5812 5812 5812 5812 5812 5812 5811 5811 5810 5809 5808 5808 5807 5806 5805 5804
5807 5807 5807 5807 5806 5806 5806 5806 5806 5805 5805 5805 5805 5805 5805 5805 5806 5806 5806 5807 5807 5807 5807 5807 5807 5807 5807 5807 5806 5805 5805 5804 5803 5802 5801 5800 5800 5799
5799 5799 5799 5799 5800 5799 5799 5799 5799 5799 5799 5799 5799 5799 5799 5800 5800 5800 5800 5801 5801 5802 5801 5802 5802 5802 5801 5801 5801 5800 5799 5798 5796 5795 5795 5794 5794 5794
5791 5791 5791 5792 5792 5792 5792 5792 5792 5791 5791 5792 5793 5793 5793 5793 5794 5794 5794 5795 5795 5795 5795 5796 5796 5796 5796 5795 5795 5794 5792 5790 5789 5789 5788 5788 5788 5788
5782 5782 5783 5783 5784 5784 5784 5785 5785 5784 5785 5785 5786 5786 5786 5786 5786 5787 5787 5788 5788 5789 5789 5790 5790 5790 5790 5789 5789 5787 5786 5784 5783 5783 5782 5782 5783 5783
5774 5774 5774 5774 5775 5775 5776 5777 5777 5777 5777 5778 5778 5778 5778 5778 5779 5780 5780 5781 5781 5782 5782 5783 5783 5783 5783 5783 5782 5781 5780 5779 5778 5777 5777 5777 5777 5778
5766 5766 5766 5766 5767 5767 5768 5769 5769 5769 5769 5770 5770 5770 5770 5771 5771 5772 5773 5773 5774 5775 5775 5775 5776 5775 5776 5776 5775 5775 5774 5773 5773 5772 5772 5772 5772 5772
5756 5756 5757 5757 5758 5759 5760 5760 5761 5761 5761 5762 5762 5762 5763 5763 5763 5764 5764 5765 5766 5767 5767 5768 5768 5768 5769 5769 5768 5768 5768 5767 5767 5767 5766 5766 5766 5766
5748 5748 5748 5748 5749 5750 5751 5751 5752 5752 5753 5754 5754 5755 5755 5755 5755 5756 5757 5757 5758 5759 5759 5760 5760 5761 5761 5761 5761 5761 5761 5761 5761 5761 5760 5760 5759 5759
5740 5739 5740 5740 5740 5741 5742 5743 5743 5744 5745 5746 5747 5747 5747 5747 5748 5748 5749 5750 5750 5751 5751 5752 5752 5753 5753 5754 5754 5754 5754 5754 5754 5754 5754 5753 5753 5753
5731 5731 5732 5732 5732 5733 5734 5735 5735 5736 5736 5738 5738 5739 5740 5740 5740 5741 5741 5742 5742 5743 5743 5743 5744 5744 5745 5745 5745 5746 5746 5746 5746 5746 5746 5746 5745 5745
5723 5723 5723 5724 5724 5725 5726 5726 5727 5728 5728 5729 5730 5730 5731 5731 5732 5732 5733 5733 5734 5735 5735 5735 5735 5735 5736 5736 5737 5737 5737 5737 5737 5737 5738 5738 5738 5737
5714 5714 5715 5715 5716 5716 5717 5718 5718 5719 5719 5720 5720 5721 5722 5722 5723 5723 5723 5724 5725 5725 5726 5726 5726 5727 5728 5728 5729 5729 5729 5728 5728 5728 5729 5729 5729 5729
5706 5706 5706 5707 5707 5707 5708 5708 5709 5709 5709 5710 5711 5711 5712 5712 5713 5714 5714 5715 5715 5716 5716 5717 5717 5718 5719 5720 5720 5720 5720 5720 5719 5719 5719 5720 5720 5720
5697 5697 5698 5698 5698 5698 5699 5699 5699 5699 5699 5700 5700 5701 5702 5703 5703 5704 5705 5705 5706 5706 5707 5707 5708 5708 5709 5710 5711 5711 5710 5710 5711 5710 5710 5710 5710 5710
5688 5688 5688 5688 5688 5689 5689 5689 5689 5689 5689 5689 5690 5690 5691 5692 5693 5694 5694 5695 5696 5697 5697 5698 5698 5698 5699 5699 5700 5701 5701 5700 5701 5701 5701 5701 5701 5701
5678 5678 5678 5678 5678 5679 5678 5678 5679 5679 5679 5679 5679 5680 5680 5681 5682 5683 5684 5685 5686 5686 5687 5687 5688 5688 5688 5689 5690 5690 5691 5691 5691 5690 5691 5691 5691 5691
5669 5668 5668 5668 5668 5667 5667 5667 5667 5668 5668 5668 5668 5669 5669 5670 5671 5672 5673 5674 5674 5675 5676 5677 5677 5677 5678 5678 5679 5680 5680 5680 5680 5680 5681 5680 5680 5680